GEFSCGP_prec_meanprecacc_120.txt.gz
Total_Precipitation_Accumulation
0.00 0.01 0.02 0.02 0.02 0.02 0.04 0.06 0.09 0.12 0.11 0.13 0.29 0.46 0.46 0.56 0.81 1.01 1.27 1.50 1.73 1.98 2.27 2.50 2.50 2.60 2.63 2.83 2.94 3.00 3.44 3.53 3.36 3.09 2.77 2.59 2.47 2.39 2.27 2.13 1.97 1.93 1.94 2.03
0.01 0.03 0.01 0.01 0.02 0.03 0.05 0.08 0.11 0.13 0.11 0.12 0.26 0.43 0.50 0.73 1.02 1.06 1.12 1.25 1.43 1.79 2.04 2.16 2.19 2.17 2.41 2.79 2.99 2.92 2.79 2.85 2.85 2.76 2.67 2.62 2.66 2.41 2.19 2.07 1.89 1.77 1.81 1.89
0.03 0.03 0.01 0.01 0.02 0.02 0.04 0.05 0.09 0.14 0.13 0.17 0.26 0.52 0.65 0.83 0.95 1.03 1.11 1.18 1.32 1.61 1.83 1.98 1.94 1.91 2.00 2.11 2.18 2.18 2.16 2.03 1.98 2.03 2.16 2.23 2.28 2.08 1.91 1.84 1.77 1.65 1.60 1.57
0.03 0.02 0.03 0.03 0.04 0.04 0.05 0.06 0.05 0.06 0.13 0.23 0.32 0.77 0.97 0.90 0.94 1.08 1.09 1.11 1.33 1.60 1.50 1.51 1.56 1.59 1.69 1.77 1.74 1.64 1.64 1.63 1.61 1.69 1.79 1.79 1.77 1.67 1.63 1.64 1.56 1.50 1.44 1.41
0.05 0.04 0.03 0.05 0.05 0.04 0.04 0.04 0.05 0.08 0.16 0.24 0.30 0.61 0.92 1.12 1.17 1.04 0.99 0.95 1.12 1.23 1.08 1.07 1.12 1.12 1.18 1.20 1.28 1.30 1.37 1.37 1.37 1.38 1.42 1.45 1.42 1.42 1.43 1.37 1.31 1.25 1.21 1.27
0.05 0.05 0.04 0.04 0.03 0.04 0.04 0.05 0.11 0.20 0.35 0.54 0.44 0.54 0.88 1.15 1.26 1.02 0.94 0.90 0.95 0.93 0.89 0.95 0.96 0.90 0.92 0.98 1.08 1.13 1.20 1.23 1.22 1.21 1.22 1.22 1.22 1.21 1.20 1.16 1.17 1.14 1.09 1.03
0.12 0.12 0.09 0.06 0.05 0.05 0.05 0.11 0.39 0.66 0.85 0.85 0.55 0.62 0.95 0.96 0.95 0.89 0.85 0.91 0.94 0.84 0.75 0.72 0.73 0.75 0.81 0.85 0.86 0.86 0.91 0.97 0.91 0.87 0.92 0.93 0.94 0.92 0.93 0.92 0.89 0.83 0.75 0.74
0.17 0.24 0.14 0.08 0.08 0.07 0.09 0.14 0.44 0.60 0.61 0.67 0.56 0.80 1.16 0.94 0.86 0.78 0.79 0.89 0.85 0.70 0.59 0.56 0.55 0.57 0.61 0.61 0.59 0.59 0.66 0.74 0.76 0.75 0.74 0.65 0.60 0.58 0.58 0.66 0.66 0.61 0.57 0.56
0.10 0.10 0.07 0.06 0.07 0.10 0.14 0.16 0.22 0.40 0.40 0.50 0.60 0.83 1.01 0.83 0.78 0.81 0.89 0.93 0.85 0.65 0.50 0.44 0.41 0.40 0.40 0.39 0.42 0.48 0.55 0.61 0.65 0.64 0.58 0.52 0.47 0.44 0.43 0.47 0.54 0.54 0.58 0.54
0.05 0.04 0.05 0.06 0.07 0.10 0.13 0.14 0.16 0.32 0.41 0.49 0.55 0.80 0.99 1.02 0.97 0.88 0.92 0.80 0.58 0.44 0.34 0.30 0.26 0.25 0.25 0.27 0.31 0.39 0.44 0.45 0.45 0.45 0.44 0.38 0.37 0.37 0.39 0.41 0.42 0.44 0.47 0.50
0.03 0.03 0.05 0.07 0.10 0.11 0.15 0.18 0.25 0.34 0.34 0.47 0.60 0.69 0.66 0.71 0.80 0.85 0.79 0.61 0.40 0.29 0.21 0.20 0.20 0.21 0.22 0.21 0.26 0.34 0.41 0.44 0.45 0.43 0.42 0.35 0.31 0.29 0.30 0.32 0.33 0.39 0.41 0.44
0.04 0.03 0.05 0.11 0.14 0.13 0.12 0.15 0.23 0.36 0.32 0.36 0.47 0.51 0.33 0.34 0.42 0.46 0.42 0.34 0.27 0.22 0.19 0.21 0.23 0.23 0.22 0.23 0.28 0.35 0.41 0.46 0.49 0.51 0.51 0.47 0.40 0.36 0.34 0.32 0.30 0.31 0.35 0.38
0.05 0.04 0.08 0.25 0.39 0.24 0.14 0.11 0.13 0.17 0.19 0.21 0.33 0.37 0.25 0.26 0.33 0.41 0.49 0.49 0.42 0.33 0.23 0.19 0.21 0.23 0.24 0.28 0.33 0.43 0.49 0.51 0.53 0.58 0.65 0.64 0.51 0.46 0.46 0.40 0.34 0.32 0.32 0.32
0.05 0.06 0.08 0.24 0.30 0.21 0.17 0.13 0.10 0.14 0.23 0.21 0.20 0.27 0.26 0.27 0.33 0.40 0.44 0.40 0.32 0.25 0.20 0.18 0.20 0.23 0.27 0.29 0.29 0.32 0.36 0.38 0.44 0.46 0.56 0.66 0.62 0.50 0.38 0.31 0.31 0.33 0.33 0.34
0.05 0.05 0.05 0.07 0.08 0.11 0.15 0.12 0.10 0.10 0.16 0.26 0.22 0.20 0.22 0.22 0.21 0.24 0.25 0.22 0.18 0.16 0.15 0.15 0.18 0.21 0.26 0.25 0.22 0.20 0.17 0.18 0.23 0.28 0.35 0.44 0.39 0.34 0.31 0.28 0.22 0.20 0.24 0.29
0.08 0.07 0.05 0.04 0.06 0.09 0.11 0.13 0.10 0.07 0.07 0.10 0.14 0.20 0.20 0.20 0.20 0.21 0.19 0.17 0.16 0.16 0.13 0.13 0.14 0.17 0.19 0.16 0.11 0.08 0.08 0.11 0.18 0.25 0.29 0.36 0.36 0.29 0.23 0.20 0.15 0.15 0.20 0.28
0.14 0.12 0.09 0.07 0.07 0.09 0.15 0.13 0.09 0.06 0.05 0.06 0.14 0.23 0.21 0.21 0.21 0.19 0.17 0.15 0.12 0.10 0.08 0.07 0.06 0.06 0.05 0.05 0.04 0.05 0.06 0.07 0.15 0.25 0.32 0.37 0.42 0.42 0.31 0.18 0.16 0.19 0.25 0.33
0.15 0.13 0.09 0.09 0.12 0.22 0.17 0.09 0.07 0.07 0.05 0.06 0.09 0.10 0.11 0.10 0.08 0.07 0.07 0.06 0.04 0.04 0.04 0.03 0.03 0.02 0.03 0.03 0.05 0.08 0.07 0.09 0.14 0.24 0.31 0.34 0.39 0.40 0.36 0.31 0.30 0.33 0.40 0.46
0.13 0.14 0.13 0.10 0.12 0.15 0.11 0.11 0.11 0.12 0.09 0.08 0.08 0.06 0.06 0.07 0.06 0.07 0.05 0.04 0.04 0.04 0.05 0.04 0.03 0.04 0.04 0.05 0.08 0.13 0.14 0.16 0.21 0.30 0.40 0.40 0.42 0.43 0.37 0.36 0.40 0.45 0.50 0.51
0.15 0.15 0.18 0.18 0.20 0.19 0.15 0.16 0.17 0.15 0.20 0.12 0.10 0.08 0.05 0.05 0.10 0.13 0.07 0.03 0.03 0.05 0.09 0.08 0.06 0.06 0.07 0.09 0.13 0.18 0.23 0.28 0.36 0.45 0.51 0.50 0.54 0.57 0.53 0.54 0.55 0.55 0.59 0.53
0.27 0.24 0.21 0.23 0.28 0.25 0.20 0.20 0.18 0.27 0.32 0.14 0.11 0.09 0.06 0.06 0.09 0.08 0.06 0.03 0.03 0.04 0.04 0.05 0.07 0.07 0.09 0.11 0.15 0.25 0.30 0.34 0.39 0.42 0.50 0.56 0.63 0.71 0.74 0.79 0.75 0.72 0.67 0.65
0.27 0.32 0.37 0.38 0.43 0.35 0.20 0.16 0.22 0.29 0.23 0.18 0.14 0.10 0.08 0.08 0.08 0.06 0.04 0.04 0.03 0.03 0.04 0.05 0.08 0.07 0.09 0.13 0.20 0.28 0.32 0.34 0.38 0.43 0.52 0.59 0.65 0.65 0.74 0.99 0.99 1.00 0.95 0.83
0.27 0.29 0.33 0.35 0.34 0.23 0.20 0.21 0.21 0.23 0.24 0.19 0.16 0.11 0.08 0.07 0.07 0.06 0.06 0.06 0.05 0.05 0.05 0.07 0.11 0.13 0.16 0.20 0.31 0.43 0.41 0.41 0.46 0.52 0.59 0.63 0.64 0.71 0.85 0.99 1.04 1.08 1.05 0.93
0.26 0.22 0.27 0.32 0.31 0.30 0.23 0.20 0.22 0.19 0.17 0.15 0.13 0.12 0.10 0.10 0.11 0.10 0.09 0.09 0.09 0.09 0.09 0.12 0.17 0.24 0.32 0.36 0.44 0.54 0.52 0.53 0.58 0.60 0.63 0.66 0.71 0.74 0.83 0.99 1.00 1.00 0.96 0.94
0.18 0.23 0.30 0.35 0.29 0.28 0.24 0.27 0.25 0.17 0.14 0.13 0.11 0.11 0.12 0.12 0.12 0.11 0.11 0.11 0.11 0.11 0.12 0.17 0.26 0.35 0.43 0.51 0.57 0.61 0.64 0.70 0.74 0.71 0.68 0.72 0.77 0.82 0.88 0.94 0.99 0.94 0.89 0.80
0.13 0.23 0.34 0.35 0.31 0.40 0.37 0.25 0.18 0.15 0.12 0.11 0.11 0.11 0.10 0.11 0.11 0.10 0.10 0.12 0.12 0.13 0.14 0.19 0.27 0.37 0.45 0.54 0.62 0.67 0.77 0.90 0.97 0.95 0.85 0.84 0.87 0.91 0.97 0.97 0.87 0.73 0.65 0.52

GEFSCGP_prec_meanprecacc_126.txt.gz
Total_Precipitation_Accumulation
0.00 0.01 0.02 0.02 0.02 0.02 0.05 0.06 0.10 0.13 0.11 0.13 0.29 0.47 0.47 0.57 0.82 1.03 1.30 1.56 1.81 2.07 2.36 2.58 2.58 2.71 2.78 3.04 3.15 3.16 3.56 3.64 3.49 3.22 2.87 2.69 2.57 2.48 2.32 2.16 2.00 1.97 1.98 2.07
0.01 0.03 0.01 0.01 0.02 0.03 0.05 0.08 0.12 0.13 0.11 0.12 0.26 0.43 0.50 0.75 1.03 1.07 1.15 1.29 1.49 1.85 2.12 2.25 2.25 2.26 2.56 2.95 3.17 3.06 2.90 2.98 2.99 2.89 2.79 2.74 2.77 2.49 2.24 2.11 1.92 1.80 1.85 1.92
0.03 0.03 0.01 0.01 0.02 0.02 0.04 0.06 0.09 0.14 0.14 0.17 0.26 0.53 0.67 0.87 0.96 1.03 1.12 1.22 1.37 1.65 1.89 2.04 1.99 1.98 2.16 2.24 2.31 2.29 2.26 2.15 2.11 2.15 2.26 2.32 2.37 2.15 1.96 1.88 1.80 1.68 1.63 1.59
0.03 0.02 0.03 0.03 0.04 0.04 0.05 0.06 0.05 0.06 0.14 0.23 0.34 0.82 1.00 0.92 0.95 1.08 1.10 1.12 1.35 1.63 1.55 1.56 1.61 1.66 1.82 1.88 1.84 1.73 1.71 1.71 1.69 1.78 1.89 1.86 1.83 1.73 1.69 1.68 1.59 1.53 1.47 1.43
0.05 0.04 0.03 0.05 0.05 0.04 0.05 0.04 0.05 0.08 0.16 0.26 0.34 0.64 0.94 1.15 1.21 1.05 0.99 0.95 1.14 1.24 1.11 1.10 1.16 1.18 1.23 1.26 1.35 1.36 1.42 1.43 1.44 1.46 1.50 1.52 1.48 1.47 1.46 1.39 1.33 1.27 1.23 1.29
0.05 0.05 0.04 0.04 0.03 0.04 0.04 0.06 0.11 0.22 0.38 0.58 0.47 0.56 0.90 1.19 1.33 1.04 0.95 0.90 0.98 0.95 0.91 0.97 0.99 0.94 0.96 1.03 1.12 1.19 1.26 1.29 1.28 1.27 1.28 1.28 1.27 1.25 1.22 1.18 1.19 1.15 1.10 1.04
0.12 0.12 0.09 0.06 0.05 0.05 0.05 0.12 0.42 0.75 1.00 0.99 0.61 0.64 0.96 0.97 0.95 0.89 0.85 0.91 0.94 0.85 0.76 0.73 0.74 0.78 0.84 0.89 0.89 0.90 0.97 1.01 0.95 0.92 0.97 0.98 0.97 0.95 0.95 0.94 0.90 0.84 0.76 0.74
0.17 0.24 0.14 0.08 0.08 0.08 0.09 0.14 0.47 0.68 0.69 0.75 0.62 0.83 1.18 0.94 0.86 0.78 0.79 0.89 0.85 0.70 0.60 0.57 0.56 0.58 0.63 0.64 0.63 0.63 0.70 0.78 0.80 0.77 0.77 0.68 0.62 0.59 0.59 0.67 0.66 0.62 0.57 0.56
0.10 0.10 0.08 0.07 0.08 0.10 0.14 0.16 0.22 0.41 0.42 0.52 0.64 0.86 1.02 0.83 0.78 0.81 0.89 0.93 0.85 0.65 0.50 0.44 0.42 0.41 0.41 0.42 0.45 0.52 0.58 0.63 0.68 0.67 0.61 0.54 0.48 0.46 0.44 0.48 0.54 0.54 0.58 0.54
0.06 0.04 0.06 0.06 0.08 0.10 0.13 0.14 0.17 0.32 0.44 0.52 0.58 0.85 1.05 1.04 0.97 0.88 0.92 0.80 0.58 0.44 0.34 0.30 0.26 0.25 0.26 0.28 0.34 0.42 0.47 0.47 0.48 0.49 0.48 0.40 0.39 0.39 0.40 0.41 0.42 0.44 0.47 0.50
0.04 0.03 0.05 0.08 0.10 0.12 0.15 0.18 0.25 0.36 0.35 0.49 0.67 0.78 0.72 0.73 0.81 0.87 0.79 0.61 0.40 0.29 0.21 0.20 0.20 0.21 0.22 0.22 0.28 0.37 0.43 0.47 0.47 0.46 0.45 0.39 0.33 0.30 0.31 0.32 0.33 0.39 0.41 0.44
0.05 0.04 0.07 0.13 0.15 0.14 0.13 0.15 0.23 0.37 0.34 0.37 0.51 0.56 0.36 0.36 0.43 0.46 0.43 0.34 0.27 0.22 0.19 0.21 0.24 0.24 0.22 0.24 0.29 0.37 0.43 0.48 0.51 0.52 0.53 0.49 0.42 0.38 0.35 0.32 0.30 0.31 0.35 0.38
0.08 0.07 0.12 0.33 0.45 0.27 0.15 0.11 0.13 0.17 0.19 0.22 0.35 0.40 0.27 0.28 0.34 0.42 0.49 0.49 0.42 0.33 0.23 0.19 0.22 0.24 0.25 0.29 0.34 0.45 0.51 0.52 0.54 0.59 0.67 0.66 0.53 0.48 0.47 0.40 0.34 0.32 0.32 0.32
0.09 0.11 0.13 0.33 0.43 0.30 0.22 0.16 0.11 0.15 0.24 0.21 0.21 0.28 0.28 0.29 0.34 0.41 0.44 0.40 0.32 0.26 0.20 0.18 0.20 0.24 0.27 0.30 0.30 0.33 0.37 0.39 0.45 0.47 0.56 0.67 0.62 0.51 0.39 0.31 0.32 0.34 0.33 0.35
0.07 0.08 0.07 0.10 0.16 0.19 0.23 0.19 0.14 0.11 0.16 0.27 0.23 0.22 0.26 0.26 0.23 0.26 0.26 0.22 0.18 0.17 0.15 0.16 0.18 0.22 0.26 0.25 0.22 0.20 0.18 0.18 0.24 0.28 0.35 0.45 0.40 0.34 0.31 0.28 0.22 0.20 0.24 0.30
0.11 0.10 0.07 0.06 0.10 0.13 0.16 0.19 0.13 0.09 0.08 0.11 0.17 0.24 0.26 0.26 0.24 0.22 0.19 0.17 0.16 0.16 0.14 0.13 0.15 0.17 0.19 0.16 0.11 0.08 0.09 0.12 0.19 0.25 0.30 0.37 0.36 0.29 0.23 0.20 0.15 0.15 0.21 0.28
0.23 0.18 0.15 0.10 0.09 0.13 0.18 0.15 0.11 0.07 0.05 0.06 0.18 0.30 0.23 0.23 0.22 0.19 0.17 0.15 0.12 0.10 0.08 0.08 0.07 0.06 0.05 0.05 0.05 0.05 0.06 0.08 0.16 0.26 0.33 0.38 0.42 0.42 0.31 0.19 0.16 0.19 0.26 0.34
0.26 0.26 0.20 0.15 0.20 0.31 0.19 0.10 0.09 0.09 0.06 0.07 0.11 0.15 0.13 0.14 0.10 0.07 0.07 0.08 0.05 0.04 0.04 0.04 0.03 0.02 0.03 0.03 0.05 0.08 0.07 0.09 0.15 0.25 0.31 0.34 0.39 0.40 0.37 0.32 0.31 0.34 0.42 0.48
0.20 0.28 0.25 0.21 0.26 0.22 0.16 0.13 0.12 0.13 0.11 0.09 0.11 0.08 0.07 0.08 0.07 0.08 0.05 0.08 0.06 0.05 0.05 0.04 0.04 0.04 0.05 0.05 0.08 0.13 0.14 0.17 0.22 0.31 0.41 0.41 0.44 0.44 0.40 0.39 0.42 0.47 0.52 0.53
0.22 0.29 0.34 0.31 0.35 0.32 0.24 0.22 0.19 0.18 0.25 0.14 0.12 0.09 0.06 0.06 0.14 0.15 0.07 0.05 0.05 0.06 0.09 0.08 0.06 0.07 0.09 0.10 0.13 0.19 0.25 0.31 0.39 0.48 0.54 0.53 0.57 0.61 0.56 0.57 0.58 0.57 0.60 0.55
0.42 0.39 0.37 0.38 0.41 0.35 0.29 0.29 0.23 0.37 0.44 0.18 0.13 0.10 0.08 0.09 0.11 0.09 0.07 0.04 0.04 0.05 0.06 0.07 0.10 0.09 0.11 0.13 0.18 0.29 0.35 0.39 0.43 0.45 0.53 0.59 0.66 0.74 0.78 0.82 0.78 0.74 0.70 0.67
0.46 0.50 0.51 0.54 0.59 0.48 0.29 0.30 0.41 0.47 0.33 0.23 0.17 0.12 0.09 0.09 0.08 0.06 0.05 0.04 0.04 0.04 0.06 0.09 0.11 0.10 0.13 0.16 0.24 0.33 0.37 0.39 0.42 0.47 0.56 0.63 0.70 0.70 0.79 1.03 1.03 1.03 0.98 0.85
0.43 0.50 0.50 0.51 0.51 0.37 0.31 0.37 0.41 0.39 0.36 0.27 0.21 0.13 0.09 0.08 0.07 0.07 0.07 0.07 0.06 0.06 0.07 0.10 0.13 0.15 0.18 0.22 0.34 0.47 0.44 0.44 0.49 0.55 0.63 0.68 0.68 0.76 0.89 1.03 1.08 1.12 1.09 0.95
0.36 0.35 0.40 0.46 0.45 0.44 0.35 0.31 0.34 0.28 0.21 0.18 0.15 0.13 0.11 0.11 0.11 0.11 0.11 0.11 0.10 0.10 0.11 0.14 0.19 0.25 0.33 0.38 0.46 0.58 0.55 0.57 0.63 0.65 0.67 0.70 0.75 0.78 0.86 1.02 1.03 1.03 1.00 0.98
0.25 0.33 0.45 0.52 0.47 0.47 0.41 0.37 0.36 0.26 0.20 0.15 0.12 0.12 0.13 0.13 0.12 0.12 0.12 0.15 0.15 0.15 0.15 0.19 0.28 0.37 0.46 0.54 0.60 0.65 0.68 0.74 0.79 0.76 0.73 0.77 0.82 0.87 0.93 0.98 1.03 0.98 0.93 0.83
0.17 0.32 0.49 0.53 0.51 0.61 0.55 0.37 0.29 0.23 0.19 0.14 0.13 0.12 0.12 0.13 0.13 0.13 0.13 0.13 0.15 0.18 0.19 0.22 0.29 0.38 0.48 0.57 0.66 0.72 0.83 0.94 1.01 1.00 0.89 0.89 0.91 0.95 1.01 1.00 0.90 0.75 0.67 0.53

GEFSCGP_prec_meanprecacc_132.txt.gz
Total_Precipitation_Accumulation
0.00 0.01 0.02 0.02 0.02 0.03 0.05 0.06 0.11 0.14 0.12 0.15 0.30 0.48 0.50 0.63 0.87 1.07 1.35 1.63 1.89 2.17 2.50 2.77 2.73 2.85 3.02 3.40 3.56 3.59 3.85 3.82 3.64 3.34 2.94 2.75 2.61 2.53 2.37 2.19 2.01 1.98 1.99 2.07
0.01 0.03 0.01 0.01 0.02 0.03 0.06 0.09 0.12 0.14 0.12 0.14 0.27 0.45 0.55 0.83 1.10 1.11 1.19 1.34 1.55 1.95 2.26 2.46 2.42 2.37 2.70 3.22 3.52 3.44 3.20 3.16 3.13 2.99 2.85 2.80 2.83 2.55 2.29 2.14 1.94 1.81 1.85 1.93
0.03 0.03 0.02 0.02 0.02 0.02 0.04 0.06 0.10 0.15 0.14 0.18 0.28 0.56 0.72 0.94 1.06 1.09 1.14 1.23 1.39 1.69 1.98 2.19 2.11 2.05 2.24 2.36 2.50 2.52 2.50 2.34 2.23 2.24 2.32 2.39 2.44 2.21 2.00 1.90 1.82 1.69 1.64 1.60
0.03 0.03 0.03 0.04 0.04 0.04 0.06 0.06 0.05 0.07 0.14 0.25 0.36 0.85 1.03 0.95 1.02 1.13 1.12 1.14 1.36 1.65 1.60 1.67 1.73 1.72 1.88 1.98 1.97 1.89 1.85 1.86 1.81 1.84 1.93 1.90 1.86 1.76 1.71 1.69 1.60 1.54 1.48 1.44
0.05 0.04 0.03 0.05 0.05 0.04 0.05 0.04 0.05 0.09 0.17 0.27 0.37 0.67 0.99 1.20 1.29 1.11 1.02 0.98 1.18 1.29 1.16 1.16 1.26 1.25 1.31 1.37 1.48 1.49 1.52 1.54 1.54 1.53 1.54 1.55 1.51 1.50 1.48 1.40 1.34 1.27 1.23 1.29
0.05 0.05 0.04 0.04 0.04 0.04 0.04 0.06 0.11 0.22 0.40 0.62 0.51 0.62 0.98 1.23 1.37 1.07 0.97 0.93 1.04 1.00 0.94 1.01 1.05 1.00 1.02 1.12 1.25 1.30 1.34 1.35 1.33 1.32 1.32 1.31 1.30 1.28 1.24 1.19 1.19 1.15 1.10 1.04
0.12 0.12 0.10 0.06 0.05 0.06 0.05 0.12 0.43 0.77 1.04 1.06 0.66 0.69 1.01 1.00 0.98 0.92 0.88 0.94 0.97 0.87 0.78 0.75 0.77 0.82 0.87 0.93 0.96 0.98 1.04 1.06 0.98 0.95 1.01 1.01 1.00 0.98 0.97 0.95 0.90 0.84 0.76 0.74
0.17 0.24 0.15 0.09 0.09 0.09 0.10 0.14 0.48 0.70 0.73 0.82 0.70 0.95 1.28 1.00 0.90 0.81 0.82 0.91 0.87 0.72 0.61 0.57 0.57 0.60 0.65 0.67 0.67 0.68 0.75 0.82 0.83 0.79 0.79 0.71 0.65 0.62 0.60 0.68 0.67 0.62 0.58 0.56
0.10 0.11 0.08 0.07 0.08 0.11 0.15 0.17 0.23 0.42 0.44 0.58 0.73 1.01 1.16 0.88 0.81 0.86 0.96 0.97 0.87 0.66 0.51 0.45 0.43 0.42 0.44 0.46 0.50 0.55 0.60 0.66 0.71 0.68 0.63 0.56 0.51 0.48 0.45 0.49 0.54 0.54 0.58 0.54
0.06 0.05 0.06 0.07 0.08 0.11 0.15 0.15 0.18 0.35 0.46 0.58 0.67 0.95 1.18 1.11 1.03 0.94 1.01 0.85 0.61 0.46 0.36 0.31 0.28 0.27 0.29 0.33 0.40 0.46 0.49 0.49 0.50 0.51 0.49 0.42 0.41 0.42 0.41 0.42 0.43 0.44 0.47 0.50
0.05 0.04 0.06 0.09 0.11 0.14 0.18 0.20 0.28 0.38 0.39 0.54 0.74 0.85 0.81 0.79 0.86 0.91 0.84 0.65 0.43 0.31 0.23 0.22 0.22 0.23 0.26 0.26 0.32 0.40 0.45 0.48 0.49 0.47 0.46 0.40 0.34 0.32 0.31 0.33 0.34 0.39 0.41 0.44
0.06 0.06 0.09 0.16 0.17 0.16 0.16 0.19 0.27 0.40 0.38 0.41 0.56 0.61 0.40 0.41 0.47 0.50 0.47 0.38 0.30 0.24 0.20 0.23 0.25 0.26 0.25 0.27 0.32 0.40 0.45 0.49 0.52 0.53 0.54 0.49 0.43 0.38 0.36 0.33 0.31 0.31 0.35 0.38
0.10 0.11 0.15 0.35 0.47 0.29 0.18 0.16 0.18 0.23 0.25 0.26 0.43 0.49 0.31 0.32 0.38 0.46 0.54 0.55 0.46 0.35 0.24 0.21 0.24 0.25 0.27 0.30 0.36 0.46 0.53 0.54 0.55 0.60 0.67 0.66 0.53 0.48 0.47 0.41 0.35 0.33 0.32 0.32
0.11 0.14 0.18 0.37 0.48 0.36 0.27 0.21 0.17 0.21 0.29 0.26 0.27 0.35 0.33 0.34 0.39 0.46 0.52 0.52 0.39 0.28 0.22 0.19 0.22 0.26 0.29 0.31 0.31 0.34 0.38 0.40 0.45 0.48 0.57 0.67 0.63 0.51 0.39 0.32 0.32 0.34 0.34 0.35
0.08 0.11 0.11 0.13 0.19 0.26 0.29 0.24 0.19 0.16 0.20 0.32 0.27 0.26 0.30 0.33 0.29 0.32 0.38 0.32 0.25 0.21 0.18 0.18 0.20 0.23 0.27 0.26 0.24 0.21 0.18 0.18 0.24 0.29 0.36 0.45 0.40 0.34 0.32 0.29 0.23 0.21 0.25 0.30
0.15 0.15 0.14 0.11 0.14 0.18 0.21 0.22 0.16 0.11 0.10 0.13 0.20 0.29 0.29 0.30 0.31 0.31 0.30 0.28 0.22 0.19 0.16 0.15 0.16 0.18 0.19 0.17 0.13 0.09 0.09 0.12 0.19 0.26 0.30 0.37 0.36 0.29 0.24 0.20 0.16 0.16 0.22 0.29
0.29 0.25 0.22 0.17 0.14 0.20 0.22 0.19 0.14 0.09 0.07 0.09 0.22 0.36 0.29 0.27 0.30 0.28 0.27 0.25 0.18 0.13 0.11 0.10 0.08 0.07 0.06 0.06 0.05 0.06 0.07 0.09 0.17 0.26 0.33 0.39 0.43 0.42 0.32 0.20 0.17 0.20 0.27 0.35
0.34 0.36 0.30 0.22 0.27 0.39 0.24 0.14 0.13 0.14 0.10 0.11 0.15 0.21 0.21 0.21 0.20 0.17 0.15 0.14 0.12 0.12 0.09 0.07 0.06 0.05 0.05 0.04 0.06 0.09 0.09 0.10 0.17 0.26 0.32 0.34 0.39 0.41 0.38 0.35 0.33 0.37 0.44 0.50
0.24 0.34 0.33 0.28 0.33 0.29 0.21 0.18 0.18 0.20 0.19 0.21 0.24 0.18 0.18 0.17 0.15 0.17 0.13 0.14 0.12 0.12 0.11 0.10 0.09 0.09 0.09 0.09 0.12 0.16 0.16 0.20 0.24 0.33 0.42 0.42 0.45 0.46 0.43 0.43 0.47 0.51 0.57 0.56
0.28 0.35 0.42 0.38 0.42 0.39 0.31 0.30 0.27 0.27 0.39 0.33 0.34 0.32 0.29 0.26 0.28 0.25 0.14 0.12 0.15 0.14 0.16 0.15 0.13 0.13 0.14 0.15 0.19 0.24 0.29 0.34 0.41 0.50 0.57 0.57 0.61 0.65 0.62 0.63 0.64 0.62 0.65 0.60
0.55 0.53 0.49 0.49 0.51 0.45 0.38 0.39 0.32 0.49 0.59 0.35 0.32 0.35 0.36 0.34 0.30 0.20 0.14 0.11 0.14 0.12 0.12 0.14 0.16 0.16 0.18 0.21 0.27 0.38 0.43 0.46 0.49 0.52 0.60 0.67 0.75 0.86 0.90 0.93 0.87 0.82 0.79 0.76
0.61 0.67 0.68 0.70 0.73 0.61 0.41 0.41 0.56 0.65 0.52 0.49 0.39 0.34 0.34 0.30 0.26 0.20 0.15 0.13 0.11 0.12 0.13 0.15 0.18 0.18 0.21 0.25 0.34 0.44 0.48 0.52 0.59 0.65 0.75 0.82 0.90 0.92 0.98 1.22 1.22 1.21 1.13 0.99
0.58 0.67 0.68 0.70 0.74 0.57 0.45 0.51 0.55 0.57 0.60 0.58 0.48 0.33 0.33 0.29 0.24 0.21 0.19 0.15 0.12 0.12 0.13 0.16 0.20 0.23 0.28 0.34 0.49 0.63 0.60 0.61 0.69 0.76 0.85 0.88 0.92 0.97 1.07 1.21 1.26 1.31 1.29 1.16
0.48 0.47 0.57 0.67 0.70 0.62 0.48 0.42 0.48 0.49 0.45 0.49 0.46 0.42 0.43 0.36 0.28 0.23 0.20 0.17 0.16 0.15 0.16 0.20 0.27 0.34 0.44 0.51 0.63 0.75 0.72 0.75 0.81 0.83 0.86 0.89 0.95 0.99 1.06 1.22 1.23 1.22 1.18 1.15
0.33 0.42 0.56 0.68 0.62 0.59 0.54 0.54 0.58 0.58 0.48 0.45 0.39 0.33 0.35 0.32 0.26 0.22 0.21 0.20 0.20 0.20 0.22 0.26 0.33 0.44 0.56 0.66 0.73 0.78 0.82 0.89 0.97 0.95 0.93 0.97 1.01 1.03 1.08 1.14 1.20 1.14 1.06 0.94
0.27 0.42 0.60 0.66 0.62 0.72 0.69 0.57 0.56 0.57 0.50 0.48 0.42 0.38 0.31 0.28 0.24 0.22 0.20 0.19 0.20 0.22 0.24 0.27 0.34 0.45 0.57 0.67 0.78 0.84 0.95 1.07 1.14 1.14 1.05 1.04 1.05 1.08 1.13 1.12 1.01 0.85 0.75 0.60

GEFSCGP_prec_meanprecacc_138.txt.gz
Total_Precipitation_Accumulation
0.00 0.01 0.02 0.02 0.02 0.03 0.05 0.06 0.11 0.14 0.12 0.15 0.31 0.49 0.50 0.64 0.89 1.10 1.38 1.68 1.94 2.22 2.59 2.94 2.92 3.05 3.25 3.67 3.83 3.89 4.10 4.05 3.85 3.53 3.13 2.95 2.79 2.65 2.48 2.31 2.11 2.05 2.04 2.13
0.01 0.03 0.01 0.01 0.02 0.03 0.06 0.09 0.13 0.14 0.12 0.14 0.28 0.46 0.55 0.84 1.13 1.14 1.22 1.37 1.58 2.00 2.36 2.62 2.62 2.61 2.90 3.43 3.74 3.73 3.49 3.38 3.32 3.16 3.00 2.96 3.01 2.69 2.41 2.24 2.01 1.87 1.90 1.97
0.03 0.03 0.02 0.02 0.02 0.02 0.04 0.06 0.10 0.15 0.14 0.18 0.28 0.57 0.73 0.95 1.08 1.11 1.17 1.26 1.40 1.72 2.04 2.28 2.25 2.28 2.45 2.53 2.69 2.76 2.76 2.59 2.47 2.44 2.49 2.54 2.59 2.33 2.10 1.98 1.89 1.74 1.67 1.63
0.03 0.03 0.03 0.04 0.04 0.04 0.06 0.07 0.05 0.07 0.14 0.25 0.37 0.86 1.03 0.96 1.03 1.15 1.15 1.16 1.38 1.68 1.63 1.70 1.80 1.89 2.07 2.11 2.14 2.10 2.06 2.10 2.04 2.05 2.08 2.00 1.94 1.82 1.76 1.74 1.65 1.58 1.51 1.46
0.05 0.04 0.03 0.05 0.05 0.04 0.05 0.05 0.05 0.09 0.17 0.28 0.37 0.67 0.99 1.21 1.30 1.12 1.04 0.99 1.20 1.31 1.19 1.20 1.31 1.32 1.40 1.44 1.58 1.63 1.66 1.72 1.71 1.68 1.65 1.62 1.57 1.56 1.53 1.44 1.37 1.30 1.26 1.31
0.05 0.05 0.04 0.04 0.04 0.04 0.04 0.06 0.12 0.23 0.40 0.62 0.51 0.62 0.98 1.24 1.37 1.08 0.98 0.93 1.05 1.02 0.97 1.05 1.11 1.05 1.07 1.17 1.30 1.38 1.44 1.46 1.45 1.43 1.41 1.37 1.34 1.32 1.28 1.21 1.21 1.17 1.12 1.06
0.12 0.12 0.10 0.06 0.05 0.06 0.06 0.12 0.44 0.77 1.05 1.06 0.66 0.69 1.01 1.00 0.98 0.92 0.88 0.94 0.98 0.89 0.80 0.77 0.80 0.85 0.90 0.96 1.00 1.03 1.11 1.15 1.08 1.05 1.08 1.08 1.06 1.02 1.00 0.98 0.93 0.87 0.77 0.76
0.17 0.24 0.15 0.09 0.09 0.09 0.10 0.15 0.49 0.71 0.73 0.82 0.70 0.95 1.28 1.00 0.90 0.81 0.82 0.91 0.88 0.73 0.63 0.60 0.59 0.62 0.67 0.69 0.69 0.71 0.79 0.87 0.89 0.86 0.85 0.77 0.71 0.69 0.65 0.71 0.70 0.64 0.59 0.57
0.10 0.11 0.08 0.08 0.09 0.11 0.15 0.17 0.23 0.43 0.44 0.58 0.73 1.01 1.16 0.88 0.81 0.87 0.97 0.97 0.88 0.67 0.53 0.47 0.45 0.45 0.46 0.48 0.52 0.57 0.64 0.70 0.75 0.73 0.68 0.61 0.55 0.53 0.49 0.51 0.56 0.55 0.59 0.54
0.06 0.05 0.06 0.07 0.09 0.12 0.15 0.15 0.19 0.35 0.47 0.59 0.67 0.95 1.18 1.11 1.03 0.95 1.01 0.86 0.62 0.47 0.37 0.33 0.30 0.30 0.31 0.34 0.43 0.50 0.54 0.53 0.53 0.55 0.52 0.44 0.44 0.45 0.44 0.43 0.44 0.45 0.47 0.50
0.05 0.04 0.06 0.09 0.12 0.14 0.19 0.21 0.28 0.39 0.40 0.55 0.74 0.85 0.81 0.79 0.87 0.92 0.85 0.66 0.44 0.33 0.24 0.23 0.23 0.25 0.28 0.28 0.36 0.44 0.50 0.53 0.52 0.50 0.48 0.41 0.36 0.34 0.33 0.34 0.35 0.39 0.41 0.45
0.06 0.06 0.10 0.16 0.18 0.17 0.16 0.19 0.27 0.41 0.38 0.42 0.56 0.61 0.40 0.41 0.47 0.50 0.47 0.38 0.32 0.26 0.22 0.24 0.26 0.28 0.28 0.30 0.35 0.43 0.48 0.53 0.55 0.55 0.55 0.51 0.44 0.40 0.37 0.34 0.32 0.32 0.35 0.39
0.10 0.11 0.16 0.36 0.47 0.29 0.18 0.16 0.19 0.23 0.26 0.27 0.43 0.50 0.31 0.33 0.39 0.46 0.54 0.55 0.48 0.38 0.27 0.23 0.25 0.27 0.29 0.33 0.40 0.50 0.57 0.57 0.58 0.63 0.69 0.67 0.54 0.49 0.48 0.42 0.36 0.35 0.33 0.33
0.11 0.14 0.18 0.38 0.49 0.37 0.28 0.22 0.18 0.22 0.30 0.27 0.28 0.36 0.33 0.34 0.39 0.46 0.52 0.52 0.41 0.31 0.25 0.22 0.24 0.28 0.31 0.33 0.33 0.37 0.41 0.42 0.48 0.49 0.58 0.68 0.63 0.52 0.39 0.33 0.34 0.36 0.35 0.35
0.09 0.11 0.12 0.14 0.20 0.26 0.29 0.25 0.19 0.16 0.20 0.32 0.28 0.27 0.30 0.34 0.30 0.33 0.38 0.33 0.26 0.22 0.20 0.20 0.22 0.25 0.30 0.28 0.25 0.23 0.20 0.20 0.26 0.30 0.36 0.46 0.41 0.35 0.33 0.30 0.24 0.23 0.26 0.31
0.15 0.15 0.14 0.12 0.14 0.19 0.21 0.23 0.16 0.12 0.11 0.14 0.21 0.29 0.30 0.31 0.32 0.31 0.31 0.28 0.22 0.20 0.17 0.16 0.17 0.20 0.21 0.18 0.14 0.10 0.10 0.14 0.21 0.27 0.31 0.37 0.37 0.30 0.25 0.22 0.17 0.17 0.23 0.30
0.29 0.25 0.22 0.17 0.16 0.21 0.24 0.20 0.15 0.10 0.08 0.09 0.22 0.37 0.29 0.28 0.30 0.29 0.28 0.25 0.19 0.14 0.12 0.11 0.10 0.08 0.07 0.08 0.06 0.06 0.08 0.10 0.18 0.27 0.34 0.39 0.43 0.43 0.33 0.22 0.20 0.22 0.28 0.36
0.34 0.36 0.30 0.23 0.27 0.41 0.26 0.16 0.15 0.15 0.12 0.12 0.16 0.21 0.22 0.22 0.21 0.18 0.16 0.15 0.14 0.14 0.11 0.09 0.08 0.08 0.07 0.07 0.08 0.11 0.11 0.12 0.18 0.27 0.33 0.36 0.40 0.42 0.40 0.36 0.34 0.38 0.46 0.52
0.25 0.35 0.34 0.29 0.34 0.30 0.24 0.21 0.21 0.25 0.23 0.22 0.25 0.19 0.19 0.18 0.15 0.18 0.14 0.15 0.13 0.14 0.14 0.12 0.12 0.13 0.14 0.13 0.17 0.20 0.19 0.23 0.27 0.35 0.43 0.44 0.47 0.48 0.45 0.45 0.49 0.55 0.60 0.59
0.29 0.37 0.44 0.39 0.44 0.41 0.35 0.33 0.30 0.31 0.44 0.35 0.35 0.35 0.31 0.27 0.30 0.27 0.17 0.13 0.16 0.16 0.18 0.18 0.16 0.18 0.20 0.21 0.25 0.29 0.34 0.38 0.44 0.53 0.60 0.60 0.64 0.68 0.66 0.69 0.72 0.69 0.70 0.64
0.59 0.58 0.53 0.52 0.53 0.46 0.41 0.42 0.36 0.55 0.62 0.38 0.34 0.38 0.40 0.37 0.37 0.26 0.19 0.15 0.18 0.15 0.15 0.18 0.23 0.23 0.25 0.29 0.34 0.43 0.48 0.50 0.54 0.57 0.66 0.74 0.83 0.93 1.00 1.04 0.98 0.94 0.91 0.87
0.64 0.72 0.72 0.73 0.77 0.65 0.44 0.45 0.60 0.70 0.55 0.52 0.42 0.37 0.37 0.34 0.34 0.29 0.23 0.20 0.16 0.19 0.20 0.22 0.26 0.27 0.30 0.34 0.42 0.51 0.55 0.60 0.68 0.76 0.87 0.95 1.04 1.07 1.13 1.37 1.40 1.42 1.34 1.16
0.62 0.70 0.72 0.74 0.77 0.59 0.48 0.56 0.60 0.61 0.65 0.61 0.51 0.36 0.36 0.33 0.31 0.28 0.27 0.23 0.18 0.18 0.23 0.24 0.30 0.33 0.37 0.44 0.59 0.74 0.71 0.74 0.82 0.90 1.00 1.05 1.09 1.16 1.26 1.40 1.45 1.49 1.45 1.28
0.53 0.51 0.62 0.73 0.77 0.68 0.54 0.49 0.55 0.54 0.50 0.55 0.52 0.48 0.49 0.41 0.32 0.28 0.27 0.24 0.22 0.22 0.23 0.26 0.35 0.43 0.55 0.64 0.77 0.89 0.86 0.89 0.97 0.98 1.00 1.04 1.12 1.15 1.21 1.36 1.36 1.33 1.29 1.26
0.41 0.52 0.66 0.79 0.74 0.68 0.62 0.63 0.70 0.67 0.56 0.55 0.50 0.44 0.48 0.43 0.35 0.31 0.28 0.29 0.29 0.30 0.32 0.34 0.41 0.54 0.67 0.79 0.87 0.92 0.95 1.03 1.10 1.10 1.10 1.15 1.20 1.21 1.24 1.29 1.34 1.27 1.20 1.09
0.36 0.53 0.70 0.79 0.75 0.83 0.81 0.70 0.73 0.72 0.57 0.55 0.53 0.50 0.41 0.37 0.33 0.33 0.32 0.29 0.29 0.31 0.33 0.37 0.45 0.56 0.68 0.80 0.89 0.95 1.05 1.18 1.26 1.27 1.18 1.20 1.24 1.27 1.32 1.29 1.17 1.01 0.90 0.75

GEFSCGP_prec_meanprecacc_144.txt.gz
Total_Precipitation_Accumulation
0.00 0.01 0.02 0.02 0.02 0.03 0.05 0.06 0.11 0.14 0.12 0.15 0.31 0.49 0.50 0.64 0.89 1.10 1.38 1.68 1.94 2.23 2.62 2.98 2.97 3.13 3.32 3.74 3.93 4.01 4.22 4.18 3.97 3.64 3.25 3.05 2.88 2.74 2.58 2.42 2.23 2.17 2.17 2.23
0.01 0.03 0.01 0.01 0.02 0.03 0.06 0.09 0.13 0.14 0.12 0.14 0.28 0.46 0.55 0.84 1.13 1.14 1.22 1.37 1.59 2.02 2.40 2.66 2.67 2.68 2.97 3.51 3.84 3.85 3.60 3.54 3.49 3.30 3.12 3.06 3.13 2.81 2.52 2.35 2.12 1.98 2.02 2.09
0.03 0.03 0.02 0.02 0.02 0.02 0.04 0.06 0.10 0.15 0.14 0.19 0.28 0.57 0.73 0.95 1.08 1.11 1.18 1.26 1.41 1.73 2.06 2.31 2.28 2.33 2.53 2.61 2.80 2.89 2.93 2.79 2.66 2.59 2.60 2.64 2.73 2.47 2.20 2.09 1.99 1.83 1.76 1.72
0.03 0.03 0.03 0.04 0.04 0.04 0.06 0.07 0.05 0.07 0.14 0.25 0.37 0.86 1.03 0.96 1.03 1.15 1.15 1.16 1.38 1.68 1.64 1.72 1.82 1.93 2.14 2.20 2.24 2.25 2.23 2.26 2.18 2.16 2.16 2.08 2.04 1.92 1.84 1.81 1.72 1.66 1.58 1.52
0.05 0.04 0.03 0.05 0.05 0.04 0.05 0.05 0.05 0.09 0.17 0.28 0.37 0.67 0.99 1.21 1.30 1.12 1.04 0.99 1.20 1.32 1.20 1.21 1.33 1.36 1.47 1.53 1.68 1.76 1.79 1.81 1.80 1.79 1.76 1.73 1.67 1.66 1.63 1.53 1.44 1.37 1.33 1.37
0.05 0.05 0.04 0.04 0.04 0.04 0.04 0.06 0.12 0.23 0.40 0.62 0.51 0.62 0.98 1.24 1.37 1.08 0.98 0.93 1.06 1.02 0.97 1.06 1.12 1.08 1.10 1.23 1.38 1.48 1.55 1.55 1.53 1.53 1.52 1.48 1.43 1.41 1.37 1.30 1.27 1.23 1.18 1.11
0.12 0.12 0.10 0.06 0.05 0.06 0.06 0.12 0.44 0.78 1.05 1.06 0.66 0.69 1.01 1.00 0.98 0.92 0.88 0.94 0.98 0.89 0.80 0.78 0.81 0.87 0.92 0.98 1.05 1.10 1.18 1.22 1.14 1.12 1.16 1.17 1.15 1.12 1.09 1.06 0.99 0.92 0.82 0.79
0.17 0.24 0.15 0.09 0.09 0.09 0.10 0.15 0.49 0.71 0.73 0.82 0.70 0.95 1.28 1.00 0.90 0.81 0.82 0.91 0.88 0.73 0.64 0.61 0.60 0.63 0.68 0.71 0.71 0.76 0.85 0.93 0.95 0.93 0.92 0.85 0.80 0.80 0.77 0.80 0.77 0.71 0.64 0.61
0.10 0.11 0.08 0.08 0.09 0.11 0.15 0.17 0.23 0.43 0.44 0.58 0.73 1.01 1.16 0.88 0.81 0.87 0.97 0.97 0.88 0.67 0.53 0.47 0.46 0.46 0.47 0.49 0.54 0.59 0.68 0.75 0.80 0.80 0.74 0.67 0.63 0.62 0.60 0.61 0.64 0.62 0.65 0.58
0.06 0.05 0.06 0.07 0.09 0.12 0.15 0.15 0.19 0.35 0.47 0.59 0.67 0.95 1.18 1.11 1.03 0.95 1.01 0.86 0.62 0.47 0.37 0.34 0.31 0.31 0.32 0.35 0.44 0.52 0.57 0.57 0.59 0.61 0.59 0.49 0.50 0.52 0.51 0.50 0.49 0.49 0.51 0.52
0.05 0.04 0.06 0.09 0.12 0.14 0.19 0.21 0.28 0.39 0.40 0.55 0.74 0.85 0.81 0.79 0.87 0.92 0.85 0.66 0.44 0.33 0.25 0.23 0.24 0.26 0.29 0.29 0.37 0.45 0.52 0.57 0.57 0.56 0.55 0.46 0.41 0.39 0.38 0.39 0.39 0.42 0.43 0.46
0.07 0.06 0.10 0.16 0.18 0.17 0.16 0.19 0.27 0.41 0.38 0.42 0.56 0.61 0.40 0.41 0.47 0.51 0.47 0.38 0.32 0.26 0.22 0.24 0.27 0.28 0.28 0.30 0.36 0.44 0.50 0.55 0.58 0.60 0.61 0.56 0.49 0.44 0.41 0.38 0.35 0.34 0.36 0.40
0.10 0.11 0.16 0.36 0.47 0.29 0.18 0.16 0.19 0.24 0.26 0.27 0.43 0.50 0.31 0.33 0.39 0.46 0.54 0.55 0.48 0.39 0.27 0.24 0.26 0.28 0.29 0.33 0.40 0.51 0.58 0.58 0.60 0.64 0.72 0.71 0.58 0.53 0.51 0.45 0.39 0.37 0.36 0.35
0.11 0.14 0.18 0.38 0.49 0.37 0.28 0.22 0.18 0.22 0.30 0.27 0.28 0.36 0.33 0.34 0.39 0.46 0.52 0.52 0.41 0.31 0.25 0.22 0.25 0.29 0.32 0.34 0.33 0.37 0.42 0.43 0.49 0.50 0.59 0.70 0.67 0.55 0.42 0.35 0.37 0.38 0.39 0.40
0.09 0.11 0.12 0.14 0.20 0.27 0.29 0.25 0.19 0.17 0.21 0.32 0.28 0.28 0.31 0.34 0.30 0.33 0.38 0.33 0.26 0.22 0.20 0.20 0.22 0.26 0.31 0.29 0.26 0.24 0.21 0.21 0.26 0.30 0.37 0.47 0.42 0.37 0.35 0.33 0.27 0.25 0.29 0.34
0.15 0.15 0.14 0.12 0.15 0.19 0.22 0.23 0.17 0.12 0.11 0.14 0.21 0.30 0.31 0.32 0.33 0.32 0.31 0.28 0.22 0.20 0.17 0.16 0.17 0.20 0.22 0.19 0.14 0.10 0.11 0.14 0.22 0.28 0.32 0.39 0.39 0.32 0.27 0.25 0.20 0.20 0.25 0.32
0.30 0.25 0.22 0.18 0.16 0.22 0.25 0.21 0.16 0.11 0.09 0.10 0.23 0.38 0.30 0.29 0.31 0.30 0.29 0.26 0.19 0.14 0.12 0.11 0.10 0.08 0.08 0.09 0.07 0.07 0.08 0.10 0.19 0.28 0.36 0.42 0.46 0.46 0.36 0.24 0.22 0.24 0.31 0.39
0.34 0.36 0.31 0.24 0.29 0.42 0.27 0.17 0.16 0.17 0.14 0.14 0.17 0.23 0.23 0.23 0.22 0.19 0.17 0.16 0.15 0.14 0.11 0.09 0.09 0.08 0.09 0.09 0.09 0.11 0.11 0.12 0.18 0.28 0.35 0.38 0.43 0.45 0.43 0.40 0.37 0.41 0.49 0.54
0.25 0.36 0.35 0.30 0.35 0.31 0.25 0.23 0.24 0.28 0.26 0.24 0.27 0.20 0.20 0.19 0.16 0.19 0.14 0.15 0.14 0.15 0.15 0.13 0.13 0.14 0.15 0.15 0.18 0.21 0.20 0.23 0.28 0.35 0.44 0.45 0.48 0.50 0.48 0.48 0.52 0.57 0.62 0.61
0.30 0.38 0.46 0.41 0.45 0.43 0.38 0.37 0.33 0.34 0.48 0.37 0.37 0.37 0.33 0.29 0.31 0.28 0.17 0.13 0.16 0.17 0.19 0.18 0.16 0.18 0.21 0.22 0.26 0.30 0.35 0.39 0.45 0.54 0.61 0.61 0.65 0.70 0.68 0.71 0.74 0.73 0.73 0.67
0.62 0.61 0.56 0.55 0.56 0.49 0.43 0.44 0.39 0.60 0.68 0.40 0.37 0.41 0.43 0.40 0.39 0.28 0.20 0.16 0.19 0.16 0.16 0.19 0.24 0.24 0.27 0.30 0.36 0.44 0.49 0.51 0.55 0.59 0.68 0.76 0.85 0.96 1.02 1.08 1.01 0.97 0.95 0.90
0.67 0.76 0.76 0.77 0.81 0.70 0.47 0.48 0.64 0.74 0.58 0.55 0.45 0.40 0.39 0.36 0.37 0.31 0.24 0.21 0.17 0.20 0.21 0.23 0.28 0.28 0.31 0.35 0.43 0.52 0.56 0.61 0.71 0.78 0.89 0.98 1.07 1.10 1.16 1.42 1.45 1.47 1.39 1.21
0.66 0.75 0.78 0.78 0.81 0.64 0.53 0.62 0.64 0.64 0.68 0.65 0.54 0.39 0.38 0.35 0.32 0.30 0.28 0.24 0.19 0.19 0.23 0.25 0.31 0.34 0.40 0.47 0.62 0.77 0.74 0.77 0.86 0.94 1.03 1.08 1.13 1.20 1.30 1.45 1.52 1.55 1.50 1.34
0.60 0.56 0.66 0.78 0.82 0.72 0.58 0.53 0.60 0.60 0.57 0.61 0.55 0.50 0.53 0.44 0.35 0.30 0.28 0.25 0.24 0.23 0.25 0.28 0.36 0.46 0.59 0.69 0.81 0.94 0.90 0.92 1.01 1.03 1.04 1.08 1.16 1.20 1.27 1.43 1.44 1.40 1.34 1.32
0.47 0.59 0.74 0.87 0.82 0.74 0.66 0.67 0.76 0.74 0.64 0.64 0.55 0.49 0.55 0.49 0.40 0.36 0.32 0.32 0.32 0.34 0.36 0.37 0.44 0.58 0.73 0.86 0.94 0.99 1.01 1.07 1.15 1.15 1.14 1.19 1.25 1.28 1.32 1.38 1.44 1.38 1.29 1.19
0.44 0.62 0.79 0.89 0.83 0.90 0.88 0.78 0.82 0.83 0.68 0.65 0.60 0.55 0.48 0.46 0.45 0.41 0.38 0.35 0.34 0.37 0.38 0.41 0.49 0.61 0.76 0.89 1.01 1.07 1.13 1.23 1.30 1.31 1.23 1.25 1.29 1.33 1.38 1.36 1.25 1.10 0.98 0.84